Regional Weather Roundup
Issued by NWS

Home | Current Version | Previous Version | Text Only | Print | Product List | Glossary On
Versions: 1 2 3 4 5 6 7 8 9 10 11 12 13 14 15 16 17 18 19 20 21 22 23 24 25 26 27 28 29 30 31 32 33 34 35 36 37 38 39 40 41 42 43 44 45 46 47 48 49 50
000
ASUS44 KJAN 251110
RWRMS

MISSISSIPPI HOURLY WEATHER ROUNDUP
NATIONAL WEATHER SERVICE JACKSON MS
600 AM CDT SAT JUN 25 2016

NOTE: "FAIR: INDICATES FEW OR NO CLOUDS BELOW 12,000 FEET WITH NO
SIGNIFICANT WEATHER AND/OR OBSTRUCTIONS TO VISIBILITY.

MSZ001>002-007>008-010>013-018>021-025>028-034>036-251200-
NORTHWEST MISSISSIPPI

CITY           SKY/WX    TMP DP  RH WIND       PRES   REMARKS
CLEVELAND      FAIR      74  74 100 SW3       30.07R
GREENWOOD      CLEAR     74  71  91 CALM      30.08R
GREENVILLE     CLEAR     75  71  87 W3        30.07R
OXFORD         FAIR      72  70  94 CALM      30.11R
WINONA         FAIR      71  71 100 CALM      30.09R
$$

MSZ003>006-009-014>017-022>024-029>033-037>039-251200-
NORTHEAST MISSISSIPPI

CITY           SKY/WX    TMP DP  RH WIND       PRES   REMARKS
ABERDEEN       FAIR      73  55  53 CALM      30.09R HAZE
COLUMBUS AFB   CLEAR     73  73 100 CALM      30.07R FOG
GOLDN TRIANGLE PTCLDY    75  72  88 CALM      30.07R
STARKVILLE     FAIR      70  70 100 CALM      30.08R
TUPELO         CLEAR     78  73  84 CALM      30.08R
$$

MSZ040-058-251200-
CENTRAL MISSISSIPPI

CITY           SKY/WX    TMP DP  RH WIND       PRES   REMARKS
JACKSON INTL   PTCLDY    76  72  87 CALM      30.08R
JACKSON HAWKNS PTCLDY    76  72  87 CALM      30.09R
MADISON        FAIR      73  72  94 CALM      30.08R
MERIDIAN KEY   CLEAR     76  71  85 S5        30.09R
MERIDIAN NAS   CLEAR     75  70  84 W3        30.09R
VICKSBURG VKS  MOSUNNY   73  72  94 CALM      30.09R
$$

MSZ059>079-251200-
SOUTH MISSISSIPPI

CITY           SKY/WX    TMP DP  RH WIND       PRES   REMARKS
BROOKHAVEN     FAIR     N/A N/A N/A MISG      30.11R
COLUMBIA       FAIR      70  68  94 CALM      30.13R FOG
HATTIESBURG    CLEAR     74  71  91 CALM      30.09R
MCCOMB         PTCLDY    73  70  90 W5        30.10R
NATCHEZ        NOT AVBL
PINE BELT      CLEAR     72  66  83 W3        30.10R
$$

MSZ080>082-251200-
COASTAL MISSISSIPPI

CITY           SKY/WX    TMP DP  RH WIND       PRES   REMARKS
BILOXI         CLEAR     79  76  91 VRB1      30.07R
PASCAGOULA     PTCLDY    70  70 100 CALM      30.08R FOG
GULFPORT       CLEAR     75  73  93 W3        30.07R
$$

LAZ007>009-015>016-023>026-251200-
NORTHEAST LOUISIANA

CITY           SKY/WX    TMP DP  RH WIND       PRES   REMARKS
BASTROP        FAIR      71  71  99 CALM      30.09R FOG
TALLULAH/VBURG MOCLDY    74  72  93 CALM      30.08R FOG
VIDALIA        FAIR      73  73  97 CALM      30.11R
$$



USA.gov is the U.S. government's official web portal to all federal, state and local government web resources and services.